Terminal Aerodrome Forecast
Issued by NWS

Home | Current Version | Previous Version | Graphics & Text | Print | Product List | Glossary On
Versions: 1 2 3 4 5 6 7 8 9 10 11 12 13 14
000
FTUS43 KFGF 141100
TAFBJI
TAF
KBJI 141120Z 1412/1512 25007KT P6SM BKN080
     FM141600 29012KT P6SM BKN050
     FM150100 29003KT P6SM SCT050=

USA.gov is the U.S. government's official web portal to all federal, state and local government web resources and services.